TimeCDT,TemperatureF,Dew PointF,Humidity,Sea Level PressureIn,VisibilityMPH,Wind Direction,Wind SpeedMPH,Gust SpeedMPH,PrecipitationIn,Events,Conditions,WindDirDegrees,DateUTC
12:13 AM,73.0,71.1,93,29.99,1.2,SSW,3.5,-,N/A,,Scattered Clouds,210,2013-08-22 05:13:00
12:15 AM,73.0,71.1,93,29.99,0.8,SSW,3.5,-,N/A,,Scattered Clouds,210,2013-08-22 05:15:00
12:42 AM,72.0,71.1,97,29.99,0.2,Calm,Calm,-,N/A,Fog,Fog,0,2013-08-22 05:42:00
12:53 AM,72.0,71.1,97,29.98,0.2,Calm,Calm,-,N/A,Fog,Fog,0,2013-08-22 05:53:00
1:53 AM,73.0,71.1,93,29.99,0.2,NE,3.5,-,N/A,Fog,Fog,40,2013-08-22 06:53:00
2:42 AM,73.0,71.1,93,30.00,1.2,Calm,Calm,-,N/A,,Overcast,0,2013-08-22 07:42:00
2:53 AM,73.0,71.1,93,29.98,1.8,Calm,Calm,-,N/A,,Overcast,0,2013-08-22 07:53:00
3:23 AM,73.0,71.1,93,30.00,2.5,NE,3.5,-,N/A,,Overcast,50,2013-08-22 08:23:00
3:37 AM,73.0,71.1,93,30.01,3.0,NNE,3.5,-,N/A,,Overcast,30,2013-08-22 08:37:00
3:53 AM,73.0,71.1,93,30.00,3.0,Calm,Calm,-,N/A,Thunderstorm,Overcast,0,2013-08-22 08:53:00
4:06 AM,73.0,71.1,93,30.01,2.0,Calm,Calm,-,0.06,Rain-Thunderstorm,Heavy Rain,0,2013-08-22 09:06:00
4:10 AM,73.0,71.1,93,30.01,2.0,Calm,Calm,-,0.06,Rain,Light Rain,0,2013-08-22 09:10:00
4:15 AM,73.0,71.1,93,30.01,3.0,Calm,Calm,-,0.06,Rain,Light Rain,0,2013-08-22 09:15:00
4:31 AM,72.0,71.1,97,30.01,2.5,NNE,3.5,-,0.06,,Overcast,30,2013-08-22 09:31:00
4:53 AM,72.0,71.1,97,29.99,1.8,Calm,Calm,-,0.06,Rain,Light Rain,0,2013-08-22 09:53:00
5:01 AM,72.0,71.1,97,30.01,2.0,Calm,Calm,-,0.00,Rain,Light Rain,0,2013-08-22 10:01:00
5:09 AM,72.0,71.1,97,30.02,2.5,West,4.6,-,0.00,Rain,Light Rain,270,2013-08-22 10:09:00
5:21 AM,72.0,71.1,97,30.00,2.0,Calm,Calm,-,0.01,Rain,Light Rain,0,2013-08-22 10:21:00
5:31 AM,72.0,71.1,97,29.99,1.5,NE,3.5,-,0.01,Rain,Light Rain,50,2013-08-22 10:31:00
5:53 AM,72.0,71.1,97,29.97,1.8,NE,4.6,-,0.01,,Overcast,50,2013-08-22 10:53:00
6:09 AM,72.0,71.1,97,30.00,2.5,Calm,Calm,-,N/A,,Overcast,0,2013-08-22 11:09:00
6:16 AM,72.0,71.1,97,30.01,3.0,Calm,Calm,-,N/A,,Overcast,0,2013-08-22 11:16:00
6:38 AM,72.0,71.1,97,30.02,2.5,Calm,Calm,-,N/A,,Mostly Cloudy,0,2013-08-22 11:38:00
6:51 AM,73.4,71.6,94,30.02,2.5,South,3.5,-,0.00,Rain,Light Rain,180,2013-08-22 11:51:00
6:53 AM,73.0,71.1,93,30.01,2.5,South,3.5,-,0.00,Rain,Light Rain,180,2013-08-22 11:53:00
7:07 AM,73.0,71.1,93,30.03,2.5,Calm,Calm,-,0.02,Rain-Thunderstorm,Rain,0,2013-08-22 12:07:00
7:20 AM,73.0,71.1,93,30.07,2.0,SW,21.9,39.1,0.04,Rain-Thunderstorm,Thunderstorms and Rain,220,2013-08-22 12:20:00
7:27 AM,68.0,64.9,90,30.06,1.0,West,23.0,42.6,0.19,Rain-Thunderstorm,Heavy Thunderstorms and Rain,270,2013-08-22 12:27:00
7:32 AM,68.0,64.0,87,30.07,1.0,West,20.7,42.6,0.29,Rain-Thunderstorm,Heavy Thunderstorms and Rain,270,2013-08-22 12:32:00
7:44 AM,68.0,64.9,90,30.07,0.8,Variable,6.9,23.0,0.68,Rain-Thunderstorm,Heavy Thunderstorms and Rain,0,2013-08-22 12:44:00
7:53 AM,68.0,64.9,90,30.07,1.2,WSW,5.8,-,0.80,Rain-Thunderstorm,Heavy Thunderstorms and Rain,240,2013-08-22 12:53:00
7:57 AM,68.0,64.9,90,30.09,3.0,Variable,4.6,-,0.00,Rain-Thunderstorm,Light Thunderstorms and Rain,0,2013-08-22 12:57:00
8:09 AM,69.1,64.9,87,30.11,7.0,North,4.6,-,0.01,Rain-Thunderstorm,Thunderstorms and Rain,350,2013-08-22 13:09:00
8:18 AM,69.1,64.9,87,30.13,6.0,North,4.6,-,0.03,Rain-Thunderstorm,Heavy Rain,10,2013-08-22 13:18:00
8:41 AM,68.0,66.0,93,30.15,2.5,Calm,Calm,-,0.10,Rain,Heavy Rain,0,2013-08-22 13:41:00
8:53 AM,69.1,66.0,90,30.13,4.0,Variable,3.5,-,0.14,Rain-Thunderstorm,Heavy Rain,0,2013-08-22 13:53:00
9:14 AM,69.1,66.0,90,30.14,3.0,North,5.8,-,0.05,Rain,Heavy Rain,350,2013-08-22 14:14:00
9:53 AM,70.0,66.0,87,30.11,4.0,NNE,6.9,17.3,0.14,Rain,Heavy Rain,30,2013-08-22 14:53:00
10:53 AM,70.0,66.9,90,30.07,10.0,ENE,13.8,23.0,0.04,Rain,Light Rain,70,2013-08-22 15:53:00
11:53 AM,73.0,66.9,81,30.04,10.0,Variable,5.8,-,0.00,,Partly Cloudy,0,2013-08-22 16:53:00
12:53 PM,73.0,66.0,79,30.04,10.0,Calm,Calm,-,N/A,,Partly Cloudy,0,2013-08-22 17:53:00
1:53 PM,77.0,68.0,74,30.06,10.0,WNW,5.8,-,N/A,,Mostly Cloudy,290,2013-08-22 18:53:00
2:53 PM,79.0,66.9,66,30.07,10.0,Variable,4.6,-,N/A,,Mostly Cloudy,0,2013-08-22 19:53:00
3:21 PM,80.1,66.0,62,30.08,10.0,WSW,5.8,-,N/A,,Scattered Clouds,250,2013-08-22 20:21:00
3:53 PM,81.0,66.0,60,30.08,10.0,WSW,3.5,-,N/A,,Mostly Cloudy,250,2013-08-22 20:53:00
4:53 PM,80.1,66.0,62,30.07,10.0,WSW,5.8,-,N/A,,Scattered Clouds,250,2013-08-22 21:53:00
5:53 PM,79.0,68.0,69,30.07,10.0,SW,3.5,-,N/A,,Partly Cloudy,230,2013-08-22 22:53:00
6:53 PM,79.0,66.9,66,30.07,10.0,West,3.5,-,N/A,,Mostly Cloudy,260,2013-08-22 23:53:00
7:53 PM,75.0,68.0,79,30.07,10.0,Calm,Calm,-,N/A,,Clear,0,2013-08-23 00:53:00
8:53 PM,70.0,68.0,93,30.09,7.0,Calm,Calm,-,N/A,,Clear,0,2013-08-23 01:53:00
9:17 PM,68.0,66.0,93,30.10,1.5,Calm,Calm,-,N/A,,Clear,0,2013-08-23 02:17:00
9:25 PM,66.9,66.0,97,30.10,0.5,Calm,Calm,-,N/A,Fog,Fog,0,2013-08-23 02:25:00
9:33 PM,66.9,66.0,97,30.10,0.2,Calm,Calm,-,N/A,Fog,Fog,0,2013-08-23 02:33:00
9:53 PM,66.9,66.0,97,30.10,0.2,Calm,Calm,-,N/A,Fog,Fog,0,2013-08-23 02:53:00
10:04 PM,66.9,64.9,93,30.10,1.5,Calm,Calm,-,N/A,,Partly Cloudy,0,2013-08-23 03:04:00
10:11 PM,66.9,64.9,93,30.10,2.5,Calm,Calm,-,N/A,,Scattered Clouds,0,2013-08-23 03:11:00
10:26 PM,66.9,64.9,93,30.10,1.5,Calm,Calm,-,N/A,,Mostly Cloudy,0,2013-08-23 03:26:00
10:40 PM,66.0,64.9,96,30.11,0.8,Calm,Calm,-,N/A,,Mostly Cloudy,0,2013-08-23 03:40:00
10:53 PM,66.0,64.9,96,30.11,0.2,Calm,Calm,-,N/A,Fog,Fog,0,2013-08-23 03:53:00
11:05 PM,66.0,64.9,96,30.11,1.0,Calm,Calm,-,N/A,,Overcast,0,2013-08-23 04:05:00
11:14 PM,66.9,64.9,93,30.11,1.5,Calm,Calm,-,N/A,,Overcast,0,2013-08-23 04:14:00
11:18 PM,66.0,64.9,96,30.12,0.8,Calm,Calm,-,N/A,,Mist,0,2013-08-23 04:18:00
11:53 PM,68.0,66.0,93,30.11,0.2,Calm,Calm,-,N/A,Fog,Fog,0,2013-08-23 04:53:00